owner,sensor,date,latitude,longitude,vertical_datum,wind_speed,wind_to_direction,wind_speed_of_gust,qcFlag 
ADCP,ioos:station:wmo:42390:1,2012-06-01T00:30:00Z,26.1290,-94.8980,1.0,7.7,90.0,99.0,'11111222,11111222,11144222' 
ADCP,ioos:station:wmo:42390:1,2012-06-01T02:30:00Z,26.1290,-94.8980,1.0,8.5,118.0,99.0,'11111222,11111222,11144222' 
ADCP,ioos:station:wmo:42390:1,2012-06-01T03:30:00Z,26.1290,-94.8980,1.0,8.2,120.0,99.0,'11111222,11111222,11144222' 
ADCP,ioos:station:wmo:42390:1,2012-06-01T04:30:00Z,26.1290,-94.8980,1.0,6.9,124.0,99.0,'11111222,11111222,11144222' 
ADCP,ioos:station:wmo:42390:1,2012-06-01T06:30:00Z,26.1290,-94.8980,1.0,4.3,134.0,99.0,'11111222,11111222,11144222' 
ADCP,ioos:station:wmo:42390:1,2012-06-01T07:30:00Z,26.1290,-94.8980,1.0,3.8,145.0,99.0,'11111222,11111222,11144222' 
ADCP,ioos:station:wmo:42390:1,2012-06-01T08:30:00Z,26.1290,-94.8980,1.0,5.7,155.0,99.0,'11111222,11111222,11144222' 
ADCP,ioos:station:wmo:42390:1,2012-06-01T09:30:00Z,26.1290,-94.8980,1.0,6.6,140.0,99.0,'11111222,11111222,11144222' 
ADCP,ioos:station:wmo:42390:1,2012-06-01T10:30:00Z,26.1290,-94.8980,1.0,7.6,122.0,99.0,'11111222,11111222,11144222' 
ADCP,ioos:station:wmo:42390:1,2012-06-01T12:30:00Z,26.1290,-94.8980,1.0,2.8,161.0,99.0,'11111222,11111222,11144222' 
ADCP,ioos:station:wmo:42390:1,2012-06-01T14:30:00Z,26.1290,-94.8980,1.0,0.1,355.0,99.0,'11111222,11111222,11144222' 
ADCP,ioos:station:wmo:42390:1,2012-06-01T15:30:00Z,26.1290,-94.8980,1.0,0.2,2.0,99.0,'11111222,11111222,11144222' 
ADCP,ioos:station:wmo:42390:1,2012-06-01T16:30:00Z,26.1290,-94.8980,1.0,2.4,21.0,99.0,'11111222,11111222,11144222' 
ADCP,ioos:station:wmo:42390:1,2012-06-01T17:30:00Z,26.1290,-94.8980,1.0,3.6,32.0,99.0,'11111222,11111222,11144222' 
ADCP,ioos:station:wmo:42390:1,2012-06-01T18:30:00Z,26.1290,-94.8980,1.0,4.1,35.0,99.0,'11111222,11111222,11144222' 
ADCP,ioos:station:wmo:42390:1,2012-06-01T19:30:00Z,26.1290,-94.8980,1.0,3.9,34.0,99.0,'11111222,11111222,11144222' 
ADCP,ioos:station:wmo:42390:1,2012-06-01T20:30:00Z,26.1290,-94.8980,1.0,3.5,37.0,99.0,'11111222,11111222,11144222' 
ADCP,ioos:station:wmo:42390:1,2012-06-01T21:30:00Z,26.1290,-94.8980,1.0,2.8,48.0,99.0,'11111222,11111222,11144222' 
ADCP,ioos:station:wmo:42390:1,2012-06-01T22:30:00Z,26.1290,-94.8980,1.0,3.5,57.0,99.0,'11111222,11111222,11144222' 
ADCP,ioos:station:wmo:42390:1,2012-06-01T23:30:00Z,26.1290,-94.8980,1.0,4.1,75.0,99.0,'11111222,11111222,11144222' 
ADCP,ioos:station:wmo:42390:1,2012-06-02T00:30:00Z,26.1290,-94.8980,1.0,4.9,79.0,99.0,'11111222,11111222,11144222' 
ADCP,ioos:station:wmo:42390:1,2012-06-02T01:30:00Z,26.1290,-94.8980,1.0,5.2,71.0,99.0,'11111222,11111222,11144222' 
ADCP,ioos:station:wmo:42390:1,2012-06-02T02:30:00Z,26.1290,-94.8980,1.0,4.0,86.0,99.0,'11111222,11111222,11144222' 
ADCP,ioos:station:wmo:42390:1,2012-06-02T03:30:00Z,26.1290,-94.8980,1.0,4.3,113.0,99.0,'11111222,11111222,11144222' 
ADCP,ioos:station:wmo:42390:1,2012-06-02T04:30:00Z,26.1290,-94.8980,1.0,4.9,114.0,99.0,'11111222,11111222,11144222' 
ADCP,ioos:station:wmo:42390:1,2012-06-02T05:30:00Z,26.1290,-94.8980,1.0,4.7,126.0,99.0,'11111222,11111222,11144222' 
ADCP,ioos:station:wmo:42390:1,2012-06-02T06:30:00Z,26.1290,-94.8980,1.0,3.6,143.0,99.0,'11111222,11111222,11144222' 
ADCP,ioos:station:wmo:42390:1,2012-06-02T07:30:00Z,26.1290,-94.8980,1.0,3.4,145.0,99.0,'11111222,11111222,11144222' 
ADCP,ioos:station:wmo:42390:1,2012-06-02T08:30:00Z,26.1290,-94.8980,1.0,3.7,131.0,99.0,'11111222,11111222,11144222' 
ADCP,ioos:station:wmo:42390:1,2012-06-02T09:30:00Z,26.1290,-94.8980,1.0,4.9,127.0,99.0,'11111222,11111222,11144222' 
ADCP,ioos:station:wmo:42390:1,2012-06-02T10:30:00Z,26.1290,-94.8980,1.0,4.5,137.0,99.0,'11111222,11111222,11144222' 
ADCP,ioos:station:wmo:42390:1,2012-06-02T11:30:00Z,26.1290,-94.8980,1.0,4.6,139.0,99.0,'11111222,11111222,11144222' 
ADCP,ioos:station:wmo:42390:1,2012-06-02T13:30:00Z,26.1290,-94.8980,1.0,3.8,140.0,99.0,'11111222,11111222,11144222' 
ADCP,ioos:station:wmo:42390:1,2012-06-02T14:30:00Z,26.1290,-94.8980,1.0,4.0,138.0,99.0,'11111222,11111222,11144222' 
ADCP,ioos:station:wmo:42390:1,2012-06-02T15:30:00Z,26.1290,-94.8980,1.0,3.6,143.0,99.0,'11111222,11111222,11144222' 
ADCP,ioos:station:wmo:42390:1,2012-06-02T16:30:00Z,26.1290,-94.8980,1.0,3.9,136.0,99.0,'11111222,11111222,11144222' 
ADCP,ioos:station:wmo:42390:1,2012-06-02T17:30:00Z,26.1290,-94.8980,1.0,5.1,135.0,99.0,'11111222,11111222,11144222' 
ADCP,ioos:station:wmo:42390:1,2012-06-02T18:30:00Z,26.1290,-94.8980,1.0,5.7,137.0,99.0,'11111222,11111222,11144222' 
ADCP,ioos:station:wmo:42390:1,2012-06-02T19:30:00Z,26.1290,-94.8980,1.0,5.9,135.0,99.0,'11111222,11111222,11144222' 
ADCP,ioos:station:wmo:42390:1,2012-06-02T20:30:00Z,26.1290,-94.8980,1.0,5.9,134.0,99.0,'11111222,11111222,11144222' 
ADCP,ioos:station:wmo:42390:1,2012-06-02T21:30:00Z,26.1290,-94.8980,1.0,6.0,139.0,99.0,'11111222,11111222,11144222' 
ADCP,ioos:station:wmo:42390:1,2012-06-02T22:30:00Z,26.1290,-94.8980,1.0,6.1,140.0,99.0,'11111222,11111222,11144222' 
ADCP,ioos:station:wmo:42390:1,2012-06-02T23:30:00Z,26.1290,-94.8980,1.0,6.6,132.0,99.0,'11111222,11111222,11144222' 
ADCP,ioos:station:wmo:42390:1,2012-06-03T00:30:00Z,26.1290,-94.8980,1.0,6.6,129.0,99.0,'11111222,11111222,11144222' 
ADCP,ioos:station:wmo:42390:1,2012-06-03T01:30:00Z,26.1290,-94.8980,1.0,6.5,128.0,99.0,'11111222,11111222,11144222' 
ADCP,ioos:station:wmo:42390:1,2012-06-03T02:30:00Z,26.1290,-94.8980,1.0,6.3,123.0,99.0,'11111222,11111222,11144222' 
ADCP,ioos:station:wmo:42390:1,2012-06-03T03:30:00Z,26.1290,-94.8980,1.0,7.5,126.0,99.0,'11111222,11111222,11144222' 
ADCP,ioos:station:wmo:42390:1,2012-06-03T04:30:00Z,26.1290,-94.8980,1.0,7.0,129.0,99.0,'11111222,11111222,11144222' 
ADCP,ioos:station:wmo:42390:1,2012-06-03T06:30:00Z,26.1290,-94.8980,1.0,7.5,139.0,99.0,'11111222,11111222,11144222' 
ADCP,ioos:station:wmo:42390:1,2012-06-03T07:30:00Z,26.1290,-94.8980,1.0,7.3,145.0,99.0,'11111222,11111222,11144222' 
ADCP,ioos:station:wmo:42390:1,2012-06-03T08:30:00Z,26.1290,-94.8980,1.0,7.1,149.0,99.0,'11111222,11111222,11144222' 
ADCP,ioos:station:wmo:42390:1,2012-06-03T09:30:00Z,26.1290,-94.8980,1.0,6.9,149.0,99.0,'11111222,11111222,11144222' 
ADCP,ioos:station:wmo:42390:1,2012-06-03T11:30:00Z,26.1290,-94.8980,1.0,8.1,134.0,99.0,'11111222,11111222,11144222' 
ADCP,ioos:station:wmo:42390:1,2012-06-03T12:30:00Z,26.1290,-94.8980,1.0,8.0,133.0,99.0,'11111222,11111222,11144222' 
ADCP,ioos:station:wmo:42390:1,2012-06-03T13:30:00Z,26.1290,-94.8980,1.0,8.4,131.0,99.0,'11111222,11111222,11144222' 
ADCP,ioos:station:wmo:42390:1,2012-06-03T14:30:00Z,26.1290,-94.8980,1.0,8.6,130.0,99.0,'11111222,11111222,11144222' 
ADCP,ioos:station:wmo:42390:1,2012-06-03T15:30:00Z,26.1290,-94.8980,1.0,8.7,130.0,99.0,'11111222,11111222,11144222' 
ADCP,ioos:station:wmo:42390:1,2012-06-03T16:30:00Z,26.1290,-94.8980,1.0,8.4,130.0,99.0,'11111222,11111222,11144222' 
ADCP,ioos:station:wmo:42390:1,2012-06-03T17:30:00Z,26.1290,-94.8980,1.0,8.3,128.0,99.0,'11111222,11111222,11144222' 
ADCP,ioos:station:wmo:42390:1,2012-06-03T19:30:00Z,26.1290,-94.8980,1.0,7.6,123.0,99.0,'11111222,11111222,11144222' 
ADCP,ioos:station:wmo:42390:1,2012-06-03T21:30:00Z,26.1290,-94.8980,1.0,6.7,122.0,99.0,'11111222,11111222,11144222' 
ADCP,ioos:station:wmo:42390:1,2012-06-03T22:30:00Z,26.1290,-94.8980,1.0,6.8,117.0,99.0,'11111222,11111222,11144222' 
ADCP,ioos:station:wmo:42390:1,2012-06-03T23:30:00Z,26.1290,-94.8980,1.0,8.3,112.0,99.0,'11111222,11111222,11144222' 
ADCP,ioos:station:wmo:42390:1,2012-06-04T00:30:00Z,26.1290,-94.8980,1.0,8.5,116.0,99.0,'11111222,11111222,11144222' 
ADCP,ioos:station:wmo:42390:1,2012-06-04T01:30:00Z,26.1290,-94.8980,1.0,8.6,119.0,99.0,'11111222,11111222,11144222' 
ADCP,ioos:station:wmo:42390:1,2012-06-04T02:30:00Z,26.1290,-94.8980,1.0,9.8,119.0,99.0,'11111222,11111222,11144222' 
ADCP,ioos:station:wmo:42390:1,2012-06-04T03:30:00Z,26.1290,-94.8980,1.0,10.6,123.0,99.0,'11111222,11111222,11144222' 
ADCP,ioos:station:wmo:42390:1,2012-06-04T04:30:00Z,26.1290,-94.8980,1.0,11.1,130.0,99.0,'11111222,11111222,11144222' 
ADCP,ioos:station:wmo:42390:1,2012-06-04T05:30:00Z,26.1290,-94.8980,1.0,10.6,130.0,99.0,'11111222,11111222,11144222' 
ADCP,ioos:station:wmo:42390:1,2012-06-04T08:30:00Z,26.1290,-94.8980,1.0,7.6,150.0,99.0,'11111222,11111222,11144222' 
ADCP,ioos:station:wmo:42390:1,2012-06-04T09:30:00Z,26.1290,-94.8980,1.0,7.6,157.0,99.0,'11111222,11111222,11144222' 
ADCP,ioos:station:wmo:42390:1,2012-06-04T10:30:00Z,26.1290,-94.8980,1.0,7.6,152.0,99.0,'11111222,11111222,11144222' 
ADCP,ioos:station:wmo:42390:1,2012-06-04T11:30:00Z,26.1290,-94.8980,1.0,6.8,150.0,99.0,'11111222,11111222,11144222' 
ADCP,ioos:station:wmo:42390:1,2012-06-04T12:30:00Z,26.1290,-94.8980,1.0,5.3,149.0,99.0,'11111222,11111222,11144222' 
ADCP,ioos:station:wmo:42390:1,2012-06-04T13:30:00Z,26.1290,-94.8980,1.0,5.8,142.0,99.0,'11111222,11111222,11144222' 
ADCP,ioos:station:wmo:42390:1,2012-06-04T15:30:00Z,26.1290,-94.8980,1.0,6.8,130.0,99.0,'11111222,11111222,11144222' 
ADCP,ioos:station:wmo:42390:1,2012-06-04T16:30:00Z,26.1290,-94.8980,1.0,6.5,130.0,99.0,'11111222,11111222,11144222' 
ADCP,ioos:station:wmo:42390:1,2012-06-04T17:30:00Z,26.1290,-94.8980,1.0,6.7,125.0,99.0,'11111222,11111222,11144222' 
ADCP,ioos:station:wmo:42390:1,2012-06-04T19:30:00Z,26.1290,-94.8980,1.0,7.1,114.0,99.0,'11111222,11111222,11144222' 
ADCP,ioos:station:wmo:42390:1,2012-06-04T20:30:00Z,26.1290,-94.8980,1.0,6.4,127.0,99.0,'11111222,11111222,11144222' 
ADCP,ioos:station:wmo:42390:1,2012-06-04T21:30:00Z,26.1290,-94.8980,1.0,6.4,121.0,99.0,'11111222,11111222,11144222' 
ADCP,ioos:station:wmo:42390:1,2012-06-04T22:30:00Z,26.1290,-94.8980,1.0,6.6,125.0,99.0,'11111222,11111222,11144222' 
ADCP,ioos:station:wmo:42390:1,2012-06-04T23:30:00Z,26.1290,-94.8980,1.0,6.3,131.0,99.0,'11111222,11111222,11144222' 
ADCP,ioos:station:wmo:42390:1,2012-06-05T00:30:00Z,26.1290,-94.8980,1.0,6.9,127.0,99.0,'11111222,11111222,11144222' 
ADCP,ioos:station:wmo:42390:1,2012-06-05T02:30:00Z,26.1290,-94.8980,1.0,8.0,130.0,99.0,'11111222,11111222,11144222' 
ADCP,ioos:station:wmo:42390:1,2012-06-05T03:30:00Z,26.1290,-94.8980,1.0,7.4,130.0,99.0,'11111222,11111222,11144222' 
ADCP,ioos:station:wmo:42390:1,2012-06-05T04:30:00Z,26.1290,-94.8980,1.0,7.2,130.0,99.0,'11111222,11111222,11144222' 
ADCP,ioos:station:wmo:42390:1,2012-06-05T06:30:00Z,26.1290,-94.8980,1.0,4.2,142.0,99.0,'11111222,11111222,11144222' 
ADCP,ioos:station:wmo:42390:1,2012-06-05T07:30:00Z,26.1290,-94.8980,1.0,5.7,142.0,99.0,'11111222,11111222,11144222' 
ADCP,ioos:station:wmo:42390:1,2012-06-05T08:30:00Z,26.1290,-94.8980,1.0,5.5,157.0,99.0,'11111222,11111222,11144222' 
ADCP,ioos:station:wmo:42390:1,2012-06-05T11:30:00Z,26.1290,-94.8980,1.0,4.0,124.0,99.0,'11111222,11111222,11144222' 
ADCP,ioos:station:wmo:42390:1,2012-06-05T12:30:00Z,26.1290,-94.8980,1.0,3.0,120.0,99.0,'11111222,11111222,11144222' 
ADCP,ioos:station:wmo:42390:1,2012-06-05T13:30:00Z,26.1290,-94.8980,1.0,3.2,110.0,99.0,'11111222,11111222,11144222' 
ADCP,ioos:station:wmo:42390:1,2012-06-05T14:30:00Z,26.1290,-94.8980,1.0,2.7,85.0,99.0,'11111222,11111222,11144222' 
ADCP,ioos:station:wmo:42390:1,2012-06-05T15:30:00Z,26.1290,-94.8980,1.0,0.9,33.0,99.0,'11111222,11111222,11144222' 
ADCP,ioos:station:wmo:42390:1,2012-06-05T16:30:00Z,26.1290,-94.8980,1.0,0.0,0.0,99.0,'11111222,11111222,11144222' 
ADCP,ioos:station:wmo:42390:1,2012-06-05T17:30:00Z,26.1290,-94.8980,1.0,0.0,0.0,99.0,'11111222,11111222,11144222' 
ADCP,ioos:station:wmo:42390:1,2012-06-05T18:30:00Z,26.1290,-94.8980,1.0,2.6,49.0,99.0,'11111222,11111222,11144222' 
ADCP,ioos:station:wmo:42390:1,2012-06-05T19:30:00Z,26.1290,-94.8980,1.0,2.8,78.0,99.0,'11111222,11111222,11144222' 
ADCP,ioos:station:wmo:42390:1,2012-06-05T20:30:00Z,26.1290,-94.8980,1.0,4.6,69.0,99.0,'11111222,11111222,11144222' 
ADCP,ioos:station:wmo:42390:1,2012-06-05T21:30:00Z,26.1290,-94.8980,1.0,6.3,73.0,99.0,'11111222,11111222,11144222' 
ADCP,ioos:station:wmo:42390:1,2012-06-05T22:30:00Z,26.1290,-94.8980,1.0,7.2,81.0,99.0,'11111222,11111222,11144222' 
ADCP,ioos:station:wmo:42390:1,2012-06-05T23:30:00Z,26.1290,-94.8980,1.0,8.0,94.0,99.0,'11111222,11111222,11144222' 
ADCP,ioos:station:wmo:42390:1,2012-06-06T00:30:00Z,26.1290,-94.8980,1.0,6.4,86.0,99.0,'11111222,11111222,11144222' 
ADCP,ioos:station:wmo:42390:1,2012-06-06T01:30:00Z,26.1290,-94.8980,1.0,5.2,81.0,99.0,'11111222,11111222,11144222' 
ADCP,ioos:station:wmo:42390:1,2012-06-06T02:30:00Z,26.1290,-94.8980,1.0,3.8,82.0,99.0,'11111222,11111222,11144222' 
ADCP,ioos:station:wmo:42390:1,2012-06-06T03:30:00Z,26.1290,-94.8980,1.0,3.4,87.0,99.0,'11111222,11111222,11144222' 
ADCP,ioos:station:wmo:42390:1,2012-06-06T04:30:00Z,26.1290,-94.8980,1.0,2.6,95.0,99.0,'11111222,11111222,11144222' 
ADCP,ioos:station:wmo:42390:1,2012-06-06T05:30:00Z,26.1290,-94.8980,1.0,2.2,96.0,99.0,'11111222,11111222,11144222' 
ADCP,ioos:station:wmo:42390:1,2012-06-06T07:30:00Z,26.1290,-94.8980,1.0,3.3,85.0,99.0,'11111222,11111222,11144222' 
ADCP,ioos:station:wmo:42390:1,2012-06-06T08:30:00Z,26.1290,-94.8980,1.0,3.2,88.0,99.0,'11111222,11111222,11144222' 
ADCP,ioos:station:wmo:42390:1,2012-06-06T09:30:00Z,26.1290,-94.8980,1.0,3.1,84.0,99.0,'11111222,11111222,11144222' 
ADCP,ioos:station:wmo:42390:1,2012-06-06T10:30:00Z,26.1290,-94.8980,1.0,4.3,93.0,99.0,'11111222,11111222,11144222' 
ADCP,ioos:station:wmo:42390:1,2012-06-06T12:30:00Z,26.1290,-94.8980,1.0,2.3,73.0,99.0,'11111222,11111222,11144222' 
ADCP,ioos:station:wmo:42390:1,2012-06-06T13:30:00Z,26.1290,-94.8980,1.0,2.1,65.0,99.0,'11111222,11111222,11144222' 
ADCP,ioos:station:wmo:42390:1,2012-06-06T14:30:00Z,26.1290,-94.8980,1.0,2.4,63.0,99.0,'11111222,11111222,11144222' 
ADCP,ioos:station:wmo:42390:1,2012-06-06T15:30:00Z,26.1290,-94.8980,1.0,3.5,64.0,99.0,'11111222,11111222,11144222' 
ADCP,ioos:station:wmo:42390:1,2012-06-06T16:30:00Z,26.1290,-94.8980,1.0,4.4,72.0,99.0,'11111222,11111222,11144222' 
ADCP,ioos:station:wmo:42390:1,2012-06-06T17:30:00Z,26.1290,-94.8980,1.0,5.0,67.0,99.0,'11111222,11111222,11144222' 
ADCP,ioos:station:wmo:42390:1,2012-06-06T18:30:00Z,26.1290,-94.8980,1.0,3.3,59.0,99.0,'11111222,11111222,11144222' 
ADCP,ioos:station:wmo:42390:1,2012-06-06T19:30:00Z,26.1290,-94.8980,1.0,4.0,66.0,99.0,'11111222,11111222,11144222' 
ADCP,ioos:station:wmo:42390:1,2012-06-06T20:30:00Z,26.1290,-94.8980,1.0,3.0,59.0,99.0,'11111222,11111222,11144222' 
ADCP,ioos:station:wmo:42390:1,2012-06-06T21:30:00Z,26.1290,-94.8980,1.0,3.4,57.0,99.0,'11111222,11111222,11144222' 
ADCP,ioos:station:wmo:42390:1,2012-06-06T22:30:00Z,26.1290,-94.8980,1.0,3.2,52.0,99.0,'11111222,11111222,11144222' 
ADCP,ioos:station:wmo:42390:1,2012-06-06T23:30:00Z,26.1290,-94.8980,1.0,3.5,57.0,99.0,'11111222,11111222,11144222' 
ADCP,ioos:station:wmo:42390:1,2012-06-07T00:30:00Z,26.1290,-94.8980,1.0,3.7,56.0,99.0,'11111222,11111222,11144222' 
ADCP,ioos:station:wmo:42390:1,2012-06-07T01:30:00Z,26.1290,-94.8980,1.0,3.3,43.0,99.0,'11111222,11111222,11144222' 
ADCP,ioos:station:wmo:42390:1,2012-06-07T03:30:00Z,26.1290,-94.8980,1.0,3.7,45.0,99.0,'11111222,11111222,11144222' 
ADCP,ioos:station:wmo:42390:1,2012-06-07T04:30:00Z,26.1290,-94.8980,1.0,4.6,45.0,99.0,'11111222,11111222,11144222' 
ADCP,ioos:station:wmo:42390:1,2012-06-07T05:30:00Z,26.1290,-94.8980,1.0,4.8,46.0,99.0,'11111222,11111222,11144222' 
ADCP,ioos:station:wmo:42390:1,2012-06-07T06:30:00Z,26.1290,-94.8980,1.0,6.0,51.0,99.0,'11111222,11111222,11144222' 
ADCP,ioos:station:wmo:42390:1,2012-06-07T09:30:00Z,26.1290,-94.8980,1.0,5.9,75.0,99.0,'11111222,11111222,11144222' 
ADCP,ioos:station:wmo:42390:1,2012-06-07T10:30:00Z,26.1290,-94.8980,1.0,4.6,62.0,99.0,'11111222,11111222,11144222' 
ADCP,ioos:station:wmo:42390:1,2012-06-07T11:30:00Z,26.1290,-94.8980,1.0,4.5,107.0,99.0,'11111222,11111222,11144222' 
ADCP,ioos:station:wmo:42390:1,2012-06-07T13:30:00Z,26.1290,-94.8980,1.0,3.0,161.0,99.0,'11111222,11111222,11144222' 
ADCP,ioos:station:wmo:42390:1,2012-06-07T14:30:00Z,26.1290,-94.8980,1.0,1.6,225.0,99.0,'11111222,11111222,11144222' 
ADCP,ioos:station:wmo:42390:1,2012-06-07T15:30:00Z,26.1290,-94.8980,1.0,2.2,200.0,99.0,'11111222,11111222,11144222' 
ADCP,ioos:station:wmo:42390:1,2012-06-07T16:30:00Z,26.1290,-94.8980,1.0,2.2,223.0,99.0,'11111222,11111222,11144222' 
ADCP,ioos:station:wmo:42390:1,2012-06-07T18:30:00Z,26.1290,-94.8980,1.0,3.4,282.0,99.0,'11111222,11111222,11144222' 
ADCP,ioos:station:wmo:42390:1,2012-06-07T19:30:00Z,26.1290,-94.8980,1.0,1.4,313.0,99.0,'11111222,11111222,11144222' 
ADCP,ioos:station:wmo:42390:1,2012-06-07T20:30:00Z,26.1290,-94.8980,1.0,0.8,342.0,99.0,'11111222,11111222,11144222' 
ADCP,ioos:station:wmo:42390:1,2012-06-07T21:30:00Z,26.1290,-94.8980,1.0,1.1,314.0,99.0,'11111222,11111222,11144222' 
ADCP,ioos:station:wmo:42390:1,2012-06-07T22:30:00Z,26.1290,-94.8980,1.0,4.2,344.0,99.0,'11111222,11111222,11144222' 
ADCP,ioos:station:wmo:42390:1,2012-06-07T23:30:00Z,26.1290,-94.8980,1.0,4.4,70.0,99.0,'11111222,11111222,11144222' 
ADCP,ioos:station:wmo:42390:1,2012-06-08T00:30:00Z,26.1290,-94.8980,1.0,5.2,71.0,99.0,'11111222,11111222,11144222' 
ADCP,ioos:station:wmo:42390:1,2012-06-08T01:30:00Z,26.1290,-94.8980,1.0,5.6,80.0,99.0,'11111222,11111222,11144222' 
ADCP,ioos:station:wmo:42390:1,2012-06-08T03:30:00Z,26.1290,-94.8980,1.0,5.6,106.0,99.0,'11111222,11111222,11144222' 
ADCP,ioos:station:wmo:42390:1,2012-06-08T04:30:00Z,26.1290,-94.8980,1.0,5.6,108.0,99.0,'11111222,11111222,11144222' 
ADCP,ioos:station:wmo:42390:1,2012-06-08T06:30:00Z,26.1290,-94.8980,1.0,3.7,126.0,99.0,'11111222,11111222,11144222' 
ADCP,ioos:station:wmo:42390:1,2012-06-08T07:30:00Z,26.1290,-94.8980,1.0,3.6,129.0,99.0,'11111222,11111222,11144222' 
ADCP,ioos:station:wmo:42390:1,2012-06-08T08:30:00Z,26.1290,-94.8980,1.0,4.7,131.0,99.0,'11111222,11111222,11144222' 
ADCP,ioos:station:wmo:42390:1,2012-06-08T09:30:00Z,26.1290,-94.8980,1.0,3.2,147.0,99.0,'11111222,11111222,11144222' 
ADCP,ioos:station:wmo:42390:1,2012-06-08T10:30:00Z,26.1290,-94.8980,1.0,2.6,159.0,99.0,'11111222,11111222,11144222' 
ADCP,ioos:station:wmo:42390:1,2012-06-08T11:30:00Z,26.1290,-94.8980,1.0,2.5,160.0,99.0,'11111222,11111222,11144222' 
ADCP,ioos:station:wmo:42390:1,2012-06-08T13:30:00Z,26.1290,-94.8980,1.0,2.4,236.0,99.0,'11111222,11111222,11144222' 
ADCP,ioos:station:wmo:42390:1,2012-06-08T14:30:00Z,26.1290,-94.8980,1.0,2.6,235.0,99.0,'11111222,11111222,11144222' 
ADCP,ioos:station:wmo:42390:1,2012-06-08T15:30:00Z,26.1290,-94.8980,1.0,2.4,260.0,99.0,'11111222,11111222,11144222' 
ADCP,ioos:station:wmo:42390:1,2012-06-08T16:30:00Z,26.1290,-94.8980,1.0,2.4,303.0,99.0,'11111222,11111222,11144222' 
ADCP,ioos:station:wmo:42390:1,2012-06-08T17:30:00Z,26.1290,-94.8980,1.0,7.7,48.0,99.0,'11111222,11111222,11144222' 
ADCP,ioos:station:wmo:42390:1,2012-06-08T18:30:00Z,26.1290,-94.8980,1.0,18.5,162.0,99.0,'11111222,11111222,11144222' 
ADCP,ioos:station:wmo:42390:1,2012-06-08T19:30:00Z,26.1290,-94.8980,1.0,99.0,338.0,99.0,'11144222,11111222,11144222' 
ADCP,ioos:station:wmo:42390:1,2012-06-08T20:30:00Z,26.1290,-94.8980,1.0,35.7,13.0,99.0,'11111222,11111222,11144222' 
ADCP,ioos:station:wmo:42390:1,2012-06-08T21:30:00Z,26.1290,-94.8980,1.0,99.0,36.0,99.0,'11144222,11111222,11144222' 
ADCP,ioos:station:wmo:42390:1,2012-06-08T22:30:00Z,26.1290,-94.8980,1.0,99.0,52.0,99.0,'11144222,11111222,11144222' 
ADCP,ioos:station:wmo:42390:1,2012-06-08T23:30:00Z,26.1290,-94.8980,1.0,99.0,46.0,99.0,'11144222,11111222,11144222' 
ADCP,ioos:station:wmo:42390:1,2012-06-09T00:30:00Z,26.1290,-94.8980,1.0,99.0,40.0,99.0,'11144222,11111222,11144222' 
ADCP,ioos:station:wmo:42390:1,2012-06-09T02:30:00Z,26.1290,-94.8980,1.0,99.0,67.0,99.0,'11144222,11111222,11144222' 
ADCP,ioos:station:wmo:42390:1,2012-06-09T03:30:00Z,26.1290,-94.8980,1.0,99.0,84.0,99.0,'11144222,11111222,11144222' 
ADCP,ioos:station:wmo:42390:1,2012-06-09T04:30:00Z,26.1290,-94.8980,1.0,99.0,129.0,99.0,'11144222,11111222,11144222' 
ADCP,ioos:station:wmo:42390:1,2012-06-09T05:30:00Z,26.1290,-94.8980,1.0,99.0,143.0,99.0,'11144222,11111222,11144222' 
ADCP,ioos:station:wmo:42390:1,2012-06-09T06:30:00Z,26.1290,-94.8980,1.0,99.0,137.0,99.0,'11144222,11111222,11144222' 
ADCP,ioos:station:wmo:42390:1,2012-06-09T07:30:00Z,26.1290,-94.8980,1.0,99.0,124.0,99.0,'11144222,11111222,11144222' 
ADCP,ioos:station:wmo:42390:1,2012-06-09T08:30:00Z,26.1290,-94.8980,1.0,99.0,150.0,99.0,'11144222,11111222,11144222' 
ADCP,ioos:station:wmo:42390:1,2012-06-09T09:30:00Z,26.1290,-94.8980,1.0,99.0,164.0,99.0,'11144222,11111222,11144222' 
ADCP,ioos:station:wmo:42390:1,2012-06-09T10:30:00Z,26.1290,-94.8980,1.0,5.4,183.0,99.0,'11111222,11111222,11144222' 
ADCP,ioos:station:wmo:42390:1,2012-06-09T11:30:00Z,26.1290,-94.8980,1.0,4.3,184.0,99.0,'11111222,11111222,11144222' 
ADCP,ioos:station:wmo:42390:1,2012-06-09T12:30:00Z,26.1290,-94.8980,1.0,5.3,202.0,99.0,'11111222,11111222,11144222' 
ADCP,ioos:station:wmo:42390:1,2012-06-09T14:30:00Z,26.1290,-94.8980,1.0,5.0,210.0,99.0,'11111222,11111222,11144222' 
ADCP,ioos:station:wmo:42390:1,2012-06-09T15:30:00Z,26.1290,-94.8980,1.0,5.2,210.0,99.0,'11111222,11111222,11144222' 
ADCP,ioos:station:wmo:42390:1,2012-06-09T16:30:00Z,26.1290,-94.8980,1.0,6.2,218.0,99.0,'11111222,11111222,11144222' 
ADCP,ioos:station:wmo:42390:1,2012-06-09T17:30:00Z,26.1290,-94.8980,1.0,6.5,281.0,99.0,'11111222,11111222,11144222' 
ADCP,ioos:station:wmo:42390:1,2012-06-09T18:30:00Z,26.1290,-94.8980,1.0,4.4,297.0,99.0,'11111222,11111222,11144222' 
ADCP,ioos:station:wmo:42390:1,2012-06-09T19:30:00Z,26.1290,-94.8980,1.0,4.1,299.0,99.0,'11111222,11111222,11144222' 
ADCP,ioos:station:wmo:42390:1,2012-06-09T20:30:00Z,26.1290,-94.8980,1.0,3.5,292.0,99.0,'11111222,11111222,11144222' 
ADCP,ioos:station:wmo:42390:1,2012-06-09T21:30:00Z,26.1290,-94.8980,1.0,2.1,274.0,99.0,'11111222,11111222,11144222' 
ADCP,ioos:station:wmo:42390:1,2012-06-09T22:30:00Z,26.1290,-94.8980,1.0,1.7,279.0,99.0,'11111222,11111222,11144222' 
ADCP,ioos:station:wmo:42390:1,2012-06-09T23:30:00Z,26.1290,-94.8980,1.0,0.6,340.0,99.0,'11111222,11111222,11144222' 
ADCP,ioos:station:wmo:42390:1,2012-06-10T00:30:00Z,26.1290,-94.8980,1.0,0.1,7.0,99.0,'11111222,11111222,11144222' 
ADCP,ioos:station:wmo:42390:1,2012-06-10T01:30:00Z,26.1290,-94.8980,1.0,2.2,136.0,99.0,'11111222,11111222,11144222' 
ADCP,ioos:station:wmo:42390:1,2012-06-10T02:30:00Z,26.1290,-94.8980,1.0,3.1,130.0,99.0,'11111222,11111222,11144222' 
ADCP,ioos:station:wmo:42390:1,2012-06-10T04:30:00Z,26.1290,-94.8980,1.0,4.7,137.0,99.0,'11111222,11111222,11144222' 
ADCP,ioos:station:wmo:42390:1,2012-06-10T05:30:00Z,26.1290,-94.8980,1.0,6.0,140.0,99.0,'11111222,11111222,11144222' 
ADCP,ioos:station:wmo:42390:1,2012-06-10T06:30:00Z,26.1290,-94.8980,1.0,7.2,140.0,99.0,'11111222,11111222,11144222' 
ADCP,ioos:station:wmo:42390:1,2012-06-10T07:30:00Z,26.1290,-94.8980,1.0,7.1,149.0,99.0,'11111222,11111222,11144222' 
ADCP,ioos:station:wmo:42390:1,2012-06-10T08:30:00Z,26.1290,-94.8980,1.0,6.7,162.0,99.0,'11111222,11111222,11144222' 
ADCP,ioos:station:wmo:42390:1,2012-06-10T09:30:00Z,26.1290,-94.8980,1.0,6.2,170.0,99.0,'11111222,11111222,11144222' 
ADCP,ioos:station:wmo:42390:1,2012-06-10T10:30:00Z,26.1290,-94.8980,1.0,6.6,185.0,99.0,'11111222,11111222,11144222' 
ADCP,ioos:station:wmo:42390:1,2012-06-10T11:30:00Z,26.1290,-94.8980,1.0,6.4,189.0,99.0,'11111222,11111222,11144222' 
ADCP,ioos:station:wmo:42390:1,2012-06-10T12:30:00Z,26.1290,-94.8980,1.0,6.1,187.0,99.0,'11111222,11111222,11144222' 
ADCP,ioos:station:wmo:42390:1,2012-06-10T13:30:00Z,26.1290,-94.8980,1.0,99.0,189.0,99.0,'11144222,11111222,11144222' 
ADCP,ioos:station:wmo:42390:1,2012-06-10T14:30:00Z,26.1290,-94.8980,1.0,6.7,173.0,99.0,'11111222,11111222,11144222' 
ADCP,ioos:station:wmo:42390:1,2012-06-10T15:30:00Z,26.1290,-94.8980,1.0,7.0,170.0,99.0,'11111222,11111222,11144222' 
ADCP,ioos:station:wmo:42390:1,2012-06-10T16:30:00Z,26.1290,-94.8980,1.0,6.9,169.0,99.0,'11111222,11111222,11144222' 
ADCP,ioos:station:wmo:42390:1,2012-06-10T17:30:00Z,26.1290,-94.8980,1.0,5.8,172.0,99.0,'11111222,11111222,11144222' 